Wind_Speed
0 1 1 1 2 1 1 2 2 3 3 3 3 3 3 3 3 3 3 3 2 3 4 4 5 5 6 6 6 7 7 6 7 6 5 5 6 6 6 6 6 6 6
1 1 2 2 3 2 2 3 3 3 3 3 3 4 4 4 4 3 4 3 3 4 4 5 5 6 6 7 6 6 7 7 7 7 6 6 6 7 7 7 6 7 7
2 2 3 4 4 4 4 4 4 4 4 4 4 4 5 4 4 4 4 4 4 5 5 5 6 6 7 7 7 7 7 7 7 7 7 7 7 7 7 8 7 7 7
3 3 4 5 5 5 5 5 5 5 5 4 4 4 5 5 5 5 4 5 5 6 6 6 6 7 7 8 8 8 8 8 8 8 8 8 7 8 8 8 8 8 8
4 4 5 6 6 6 6 5 5 6 6 5 5 5 5 6 6 6 5 5 6 7 7 6 6 7 8 8 8 8 8 9 9 9 8 8 9 9 9 9 9 9 10
4 5 6 6 6 6 6 6 6 6 6 6 6 6 6 6 6 6 6 6 7 7 7 8 7 7 8 9 9 8 8 8 9 9 9 9 9 10 10 10 10 11 11
5 6 6 6 7 7 7 7 7 7 6 6 7 7 7 7 7 7 7 7 7 7 7 8 9 8 9 9 9 9 9 9 10 10 10 10 10 10 10 10 11 11 11
6 6 6 7 7 7 8 8 8 7 7 7 6 6 6 7 7 7 8 8 7 8 8 9 10 10 10 10 10 9 9 9 10 10 11 11 11 11 11 11 11 11 11
6 6 7 7 7 7 7 7 7 7 7 7 7 7 7 7 7 8 8 8 9 9 9 9 9 10 10 10 10 10 9 10 10 11 11 11 11 11 11 11 11 12 12
6 6 6 7 7 7 7 7 7 7 7 7 7 7 7 7 7 8 8 9 9 9 9 9 10 10 11 11 10 10 10 10 10 11 11 11 11 11 12 12 12 12 12
6 6 7 7 7 7 7 7 7 7 7 7 7 7 8 8 8 8 9 9 9 9 9 10 10 11 11 11 11 11 11 10 10 10 10 11 12 12 12 12 12 12 12
7 7 7 7 8 8 7 7 7 7 7 7 8 8 8 8 8 8 9 10 10 9 9 8 10 10 10 11 11 11 11 11 10 10 10 10 11 11 12 12 11 12 12
8 8 8 8 9 8 8 8 7 7 7 8 8 8 8 8 8 8 9 9 9 9 9 8 9 10 10 10 10 11 11 11 10 11 11 10 10 10 11 11 11 11 12
8 9 9 9 9 9 8 8 7 7 7 8 9 9 9 9 8 8 9 9 10 10 10 10 9 9 9 11 11 10 11 10 10 11 10 11 11 11 11 10 11 12 12
9 9 9 9 9 8 7 7 7 7 8 8 8 8 9 9 8 8 8 8 9 9 10 10 11 10 10 11 11 11 11 10 11 11 11 11 11 11 11 11 11 11 12
9 9 9 8 8 7 7 7 7 7 7 7 8 8 8 8 8 8 8 8 9 9 9 9 10 10 10 11 11 11 11 11 11 11 11 11 11 11 11 11 11 11 12
9 8 8 8 7 7 7 7 7 7 7 7 8 7 8 8 8 8 8 8 9 9 9 10 10 10 10 11 11 12 12 12 13 12 12 11 11 11 11 10 10 11 11
8 8 8 7 7 6 6 6 6 6 6 7 7 7 7 7 7 8 8 8 8 8 8 9 9 9 9 10 10 10 11 12 12 12 11 11 11 11 10 10 11 11 12
7 7 7 7 6 6 6 6 6 6 6 7 6 7 7 5 5 6 6 6 7 7 7 7 8 8 8 9 9 9 10 12 12 12 11 11 11 11 11 11 12 12 13
6 6 6 6 5 5 6 6 6 6 6 6 5 6 5 4 4 4 4 5 5 6 6 6 7 7 7 7 8 9 9 10 11 12 11 11 11 11 11 12 12 13 12
5 5 5 5 5 6 6 6 6 5 5 5 4 4 4 4 3 3 3 3 3 5 5 6 6 6 6 7 7 8 8 9 10 10 11 11 11 11 11 11 12 12 12
5 5 5 5 5 5 5 5 5 4 3 4 4 4 3 3 3 3 3 3 3 3 4 5 5 6 6 6 6 7 7 7 9 9 9 10 11 11 11 12 12 12 12
5 4 4 5 5 5 5 4 4 3 4 4 3 3 3 2 2 3 3 3 4 4 4 5 5 5 5 5 5 5 6 6 8 9 10 10 11 11 11 11 11 11 11
4 4 5 5 5 4 4 4 4 4 4 4 3 3 3 3 3 3 3 3 3 4 5 5 5 5 5 6 6 6 7 6 7 8 9 9 9 10 10 11 11 11 11
5 5 4 4 4 5 5 5 5 4 4 4 4 3 3 3 4 4 4 4 3 4 4 4 5 5 5 6 6 7 7 7 7 7 8 8 9 9 10 11 11 11 11
5 5 4 4 5 5 5 5 5 4 4 5 4 4 3 3 4 4 4 4 4 4 5 5 5 5 6 6 6 6 6 5 6 6 7 8 9 9 10 11 11 12 12
Wind_Direction
357 337 310 322 322 292 267 252 253 255 259 257 246 242 249 257 254 235 233 236 235 219 206 199 200 198 196 195 198 201 202 201 204 205 210 215 212 207 203 210 218 219 220
313 293 296 293 300 290 275 264 251 251 243 251 252 253 250 253 246 237 239 243 232 219 210 205 208 209 208 205 205 204 208 212 214 216 221 223 217 213 212 217 222 224 226
306 302 294 291 289 284 280 270 260 245 247 256 258 255 250 245 242 240 244 243 235 221 218 216 216 215 215 212 211 212 216 219 219 218 221 223 223 221 223 223 226 229 233
292 296 298 293 286 280 278 267 256 251 255 258 259 258 254 247 246 251 246 244 233 222 222 222 229 221 220 219 216 215 219 221 220 223 225 228 230 229 231 231 234 235 236
287 291 293 291 282 271 270 271 261 256 258 259 260 261 259 255 254 256 252 246 236 228 227 228 230 227 223 222 219 220 224 225 229 232 233 236 238 239 238 238 238 239 241
284 287 285 282 276 272 268 266 266 264 260 255 259 262 257 252 251 256 256 248 242 233 232 235 237 234 230 224 221 225 230 232 235 238 237 239 241 240 241 241 241 243 246
289 287 284 283 280 278 270 263 264 264 260 258 259 262 257 253 254 257 254 251 245 239 238 241 241 240 236 227 225 228 234 238 241 242 242 242 242 239 239 241 245 246 247
292 291 288 287 285 282 274 268 266 264 262 261 261 263 258 254 257 260 255 255 247 242 243 243 241 239 235 230 230 234 239 243 246 247 246 245 244 241 240 242 245 247 249
294 289 290 291 293 293 286 273 268 264 266 264 262 264 262 259 261 262 259 256 251 246 241 239 240 239 236 234 235 240 244 246 247 248 246 245 246 245 243 245 247 248 252
296 292 295 296 296 297 293 280 275 271 267 263 262 265 266 267 266 265 262 258 251 246 241 239 242 241 241 239 238 241 246 247 246 247 246 243 245 245 245 247 250 252 253
298 300 301 297 293 293 295 287 278 275 268 261 261 263 267 267 265 263 259 256 255 253 246 240 245 245 244 241 241 241 242 244 246 246 246 242 242 244 246 248 251 251 250
298 300 302 298 294 290 290 285 280 277 271 265 266 269 268 265 268 265 260 257 258 252 247 246 247 246 243 241 240 243 245 245 244 245 246 243 244 245 246 249 251 251 251
297 297 298 298 294 288 284 279 279 278 275 271 270 271 269 268 268 266 260 256 256 254 253 256 255 249 243 242 244 246 245 246 248 246 244 244 247 251 252 250 251 253 253
296 297 297 298 292 286 282 277 277 280 279 276 272 268 265 265 265 262 259 257 256 257 257 260 260 256 247 243 243 246 246 245 247 250 245 246 250 253 254 250 251 251 253
294 297 300 301 297 287 278 275 276 278 281 277 275 269 264 262 262 260 262 261 259 258 256 258 261 261 251 247 244 244 244 243 246 246 242 244 247 251 252 251 254 253 254
294 297 299 305 302 289 280 274 275 277 282 282 276 272 271 270 263 261 263 263 261 259 258 260 262 259 256 254 249 245 241 240 242 242 239 238 243 248 250 251 255 256 258
294 296 300 304 306 295 287 282 277 279 280 283 279 273 276 274 263 261 262 261 261 259 258 259 261 258 259 258 257 251 245 241 242 241 239 239 242 246 250 251 256 259 260
295 298 301 302 305 304 298 293 287 285 283 287 283 280 283 277 265 261 260 259 259 259 257 258 258 259 257 259 260 256 249 243 241 240 241 240 243 249 251 254 257 258 259
290 294 299 299 303 306 305 302 295 291 288 286 284 287 291 286 272 262 260 260 258 258 256 259 259 258 259 260 259 258 257 251 244 240 242 244 246 248 250 255 259 260 260
295 296 302 301 301 305 306 304 302 297 291 291 290 292 290 289 277 275 265 262 260 259 258 259 260 257 261 259 259 259 259 255 247 242 243 246 247 250 252 255 260 264 265
299 299 303 304 301 303 304 304 306 301 295 294 299 301 291 280 279 282 276 271 269 266 267 268 260 261 264 263 260 259 254 253 251 248 246 250 251 253 257 259 262 264 266
299 297 300 305 306 306 307 310 314 315 307 304 300 303 291 276 277 276 273 268 269 272 271 266 263 268 275 274 266 261 256 252 253 252 253 254 253 251 255 260 265 265 263
295 297 301 304 307 305 312 314 321 322 325 318 309 303 299 287 282 283 276 270 269 275 281 276 276 283 283 278 279 278 274 263 256 255 258 257 256 254 255 258 264 267 266
295 294 297 307 311 306 313 317 312 322 331 330 316 305 293 284 283 287 286 283 277 277 276 273 279 288 285 282 281 282 281 269 263 259 261 260 258 257 258 263 267 269 269
299 294 293 300 310 315 312 309 311 310 315 317 309 304 303 291 288 288 284 288 281 283 285 280 280 286 287 284 284 285 277 268 263 259 262 264 264 263 265 267 267 271 273
298 294 288 289 299 308 310 304 301 301 305 305 304 305 308 303 296 296 292 291 291 286 287 291 283 291 288 287 285 288 280 270 266 270 269 267 270 266 266 268 271 272 275
Height
5883 5883 5882 5881 5881 5881 5880 5880 5879 5879 5879 5879 5879 5879 5878 5878 5878 5877 5877 5876 5876 5875 5875 5877 5877 5878 5879 5880 5880 5881 5881 5882 5882 5882 5883 5883 5883 5884 5884 5885 5885 5886 5886
5883 5882 5881 5881 5881 5880 5880 5879 5879 5878 5878 5878 5878 5878 5877 5877 5877 5876 5876 5876 5875 5875 5875 5876 5877 5877 5878 5879 5879 5880 5880 5881 5881 5882 5882 5882 5883 5883 5884 5884 5885 5885 5885
5882 5881 5881 5880 5880 5879 5879 5879 5878 5877 5877 5877 5877 5876 5876 5876 5876 5875 5875 5875 5874 5874 5875 5876 5876 5877 5877 5878 5878 5879 5880 5880 5880 5881 5881 5882 5882 5882 5883 5883 5883 5884 5884
5881 5880 5880 5879 5879 5878 5878 5877 5877 5877 5876 5876 5876 5875 5875 5875 5874 5874 5874 5874 5874 5874 5874 5875 5875 5876 5876 5877 5877 5878 5879 5879 5879 5880 5880 5880 5881 5881 5882 5882 5882 5883 5883
5880 5879 5879 5878 5878 5877 5876 5876 5876 5875 5875 5875 5875 5874 5874 5873 5873 5873 5873 5873 5873 5873 5873 5874 5874 5874 5875 5875 5876 5876 5877 5878 5878 5879 5879 5879 5879 5880 5880 5881 5881 5882 5882
5879 5878 5877 5877 5876 5876 5875 5875 5874 5874 5874 5874 5873 5873 5873 5872 5872 5872 5872 5872 5872 5872 5872 5872 5873 5873 5873 5874 5875 5875 5875 5876 5877 5877 5877 5877 5878 5878 5879 5879 5880 5880 5880
5878 5877 5876 5876 5875 5875 5874 5873 5873 5873 5872 5872 5872 5872 5871 5871 5871 5870 5870 5870 5870 5870 5870 5871 5871 5872 5872 5872 5873 5874 5874 5874 5875 5875 5875 5876 5876 5876 5877 5877 5878 5878 5878
5877 5876 5875 5874 5874 5873 5872 5872 5871 5871 5871 5871 5870 5870 5870 5870 5869 5869 5869 5869 5869 5869 5869 5869 5869 5870 5870 5871 5871 5872 5872 5873 5873 5873 5873 5874 5874 5874 5875 5875 5876 5876 5876
5875 5874 5874 5873 5872 5872 5871 5870 5870 5870 5869 5869 5869 5869 5868 5868 5868 5867 5867 5867 5867 5867 5867 5867 5868 5868 5868 5869 5869 5870 5871 5871 5871 5871 5871 5872 5872 5873 5873 5873 5874 5874 5874
5874 5873 5872 5872 5871 5870 5869 5869 5868 5868 5868 5868 5867 5867 5867 5866 5866 5866 5866 5865 5865 5865 5865 5865 5866 5866 5866 5867 5868 5868 5869 5869 5869 5869 5869 5870 5870 5870 5871 5871 5872 5872 5872
5873 5872 5871 5870 5870 5869 5868 5867 5867 5866 5866 5866 5865 5865 5865 5865 5864 5864 5864 5863 5863 5863 5863 5863 5863 5864 5864 5865 5865 5866 5866 5866 5867 5867 5867 5867 5868 5868 5869 5869 5869 5869 5870
5871 5870 5870 5869 5868 5867 5866 5866 5865 5865 5864 5864 5864 5863 5863 5863 5862 5862 5862 5861 5861 5861 5861 5861 5861 5862 5862 5862 5863 5863 5864 5864 5864 5865 5865 5865 5866 5866 5866 5867 5867 5867 5867
5870 5869 5868 5867 5866 5865 5865 5864 5864 5863 5863 5862 5862 5861 5861 5861 5860 5860 5860 5860 5859 5859 5859 5859 5859 5859 5859 5860 5860 5861 5861 5862 5862 5862 5863 5863 5863 5864 5864 5864 5864 5864 5865
5868 5867 5866 5865 5864 5863 5863 5862 5862 5861 5861 5860 5860 5860 5859 5859 5858 5858 5858 5857 5857 5857 5857 5857 5857 5857 5857 5858 5858 5859 5859 5859 5860 5860 5860 5860 5861 5861 5861 5861 5862 5862 5862
5867 5866 5864 5863 5862 5861 5861 5860 5860 5859 5859 5858 5858 5858 5857 5856 5856 5856 5856 5855 5855 5855 5855 5855 5855 5855 5855 5855 5856 5856 5856 5857 5857 5857 5857 5858 5859 5859 5859 5859 5859 5859 5860
5865 5864 5863 5861 5860 5860 5859 5858 5858 5858 5857 5856 5856 5856 5855 5854 5854 5854 5853 5853 5853 5853 5853 5853 5853 5853 5853 5853 5853 5854 5854 5854 5855 5855 5855 5856 5856 5857 5857 5857 5857 5857 5857
5863 5862 5861 5860 5859 5858 5857 5857 5856 5856 5855 5855 5854 5853 5853 5852 5852 5852 5851 5851 5851 5851 5851 5851 5851 5851 5851 5851 5851 5851 5852 5852 5852 5852 5853 5853 5854 5854 5854 5855 5855 5855 5855
5861 5860 5859 5859 5858 5857 5856 5855 5855 5854 5854 5853 5852 5852 5851 5850 5850 5849 5849 5849 5849 5849 5849 5849 5849 5849 5849 5849 5849 5849 5849 5849 5849 5850 5850 5851 5852 5852 5852 5852 5852 5852 5852
5860 5859 5858 5858 5857 5856 5855 5854 5854 5853 5852 5852 5851 5850 5849 5848 5848 5847 5847 5847 5847 5847 5847 5847 5847 5847 5846 5846 5846 5846 5846 5847 5847 5847 5848 5848 5849 5849 5850 5850 5850 5850 5850
5859 5858 5857 5857 5856 5855 5854 5853 5853 5852 5851 5850 5850 5849 5848 5847 5847 5846 5846 5846 5846 5846 5845 5845 5845 5845 5845 5844 5844 5844 5844 5844 5844 5845 5845 5846 5846 5847 5847 5847 5847 5847 5847
5858 5857 5856 5856 5855 5854 5853 5853 5852 5851 5850 5849 5848 5847 5847 5846 5846 5845 5845 5845 5844 5844 5844 5844 5844 5843 5843 5843 5842 5842 5842 5842 5842 5843 5843 5844 5844 5844 5844 5844 5844 5844 5844
5857 5856 5855 5855 5854 5853 5852 5851 5851 5849 5848 5848 5847 5847 5846 5845 5845 5845 5844 5844 5843 5843 5843 5842 5842 5842 5841 5841 5841 5841 5840 5841 5840 5841 5841 5842 5842 5842 5842 5842 5842 5841 5841
5856 5855 5854 5854 5853 5852 5851 5851 5850 5849 5848 5847 5847 5846 5845 5845 5844 5844 5843 5843 5843 5842 5842 5841 5841 5841 5840 5840 5840 5839 5839 5839 5838 5839 5839 5840 5840 5839 5839 5839 5839 5839 5839
5855 5854 5854 5853 5852 5851 5851 5850 5849 5848 5848 5847 5846 5845 5845 5844 5844 5843 5842 5842 5842 5841 5841 5840 5840 5840 5839 5839 5838 5838 5837 5837 5837 5837 5837 5837 5837 5837 5837 5836 5836 5836 5836
5854 5853 5853 5852 5851 5851 5850 5849 5848 5848 5847 5846 5845 5845 5844 5844 5843 5842 5842 5841 5841 5840 5840 5839 5839 5838 5838 5838 5837 5836 5835 5835 5835 5835 5835 5835 5835 5834 5834 5834 5834 5833 5833
5853 5852 5852 5851 5850 5850 5849 5848 5847 5847 5846 5846 5845 5844 5843 5843 5842 5842 5841 5840 5840 5839 5839 5838 5838 5837 5837 5836 5835 5835 5834 5833 5833 5833 5833 5833 5832 5832 5832 5831 5831 5831 5830